START_TIME,STEP,MOV.,M29,t_acc.,H22,t_acc.,H26,t_acc.,H30,t_acc.
1979-07-18 15:00:31.810 ,1,0,0.,24.0,0.,24.0,0.,24.0,0.,24.0
1979-07-18 15:00:55.810 ,2,1,0.,24.0,0.,24.0,0.,24.0,0.,24.0
1979-07-18 15:01:19.810 ,2,0,0.,24.0,0.,24.0,0.,24.0,0.,24.0
1979-07-18 15:02:31.810 ,0,0,0.,24.0,0.,24.0,0.,24.0,0.,24.0
1979-07-18 15:02:55.810 ,0,0,0.,24.0,0.,24.0,0.,24.0,0.,24.0
1979-07-18 15:03:19.810 ,5,1,0.,24.0,0.,24.0,0.,24.0,0.,24.0
1979-07-18 15:03:43.810 ,5,0,0.,24.0,0.,24.0,0.,24.0,0.,24.0
1979-07-18 15:04:07.810 ,6,1,0.,24.0,0.,24.0,0.,24.0,0.,24.0
1979-07-18 15:04:31.810 ,6,0,0.,24.0,0.,24.0,0.,24.0,0.,24.0
1979-07-18 15:04:55.810 ,7,1,0.,24.0,0.,24.0,0.,24.0,0.,24.0
1979-07-18 15:05:19.810 ,7,0,0.,24.0,0.,24.0,0.,24.0,0.,24.0
1979-07-18 15:05:43.810 ,7,1,0.,24.0,0.,24.0,0.,24.0,0.,24.0
1979-07-18 15:06:07.810 ,7,0,0.,24.0,0.,24.0,0.,24.0,0.,24.0
1979-07-18 15:06:31.810 ,6,1,0.,24.0,0.,24.0,0.,24.0,0.,24.0
1979-07-18 15:06:55.810 ,6,0,0.,24.0,0.,24.0,0.,24.0,0.,24.0
1979-07-18 15:07:19.810 ,5,1,0.,24.0,0.,24.0,0.,24.0,0.,24.0
1979-07-18 15:07:43.810 ,5,0,0.,24.0,0.,24.0,0.,24.0,0.,24.0
1979-07-18 15:08:07.810 ,4,1,0.,24.0,0.,24.0,0.,24.0,0.,24.0
1979-07-18 15:08:31.810 ,4,0,0.,24.0,0.,24.0,0.,24.0,0.,24.0
1979-07-18 15:08:55.810 ,3,1,0.,24.0,0.,24.0,0.,24.0,0.,24.0
1979-07-18 15:09:19.810 ,3,0,0.,24.0,0.,24.0,0.,24.0,0.,24.0
1979-07-18 15:09:43.810 ,2,1,0.,24.0,0.,24.0,0.,24.0,0.,24.0
1979-07-18 15:10:07.810 ,2,0,0.,24.0,0.,24.0,0.,24.0,0.,24.0
1979-07-18 15:10:31.810 ,1,1,0.,24.0,0.,24.0,0.,24.0,0.,24.0
1979-07-18 15:10:55.810 ,1,0,0.,24.0,0.,24.0,0.,24.0,0.,24.0
1979-07-18 15:11:19.810 ,0,1,0.,24.0,0.,24.0,0.,24.0,0.,24.0
1979-07-18 15:11:43.810 ,0,0,0.,24.0,0.,24.0,0.,24.0,0.,24.0
1979-07-18 15:12:07.810 ,0,1,0.,24.0,0.,24.0,0.,24.0,0.,24.0
1979-07-18 15:12:31.810 ,0,0,0.,24.0,0.,24.0,0.,24.0,0.,24.0
1979-07-18 15:12:55.810 ,1,1,0.,24.0,0.,24.0,0.,24.0,0.,24.0
1979-07-18 15:13:19.810 ,1,0,0.,24.0,0.,24.0,0.,24.0,0.,24.0
1979-07-18 15:13:43.810 ,2,1,0.,24.0,0.,24.0,0.,24.0,0.,24.0
1979-07-18 15:14:07.810 ,2,0,0.,24.0,0.,24.0,0.,24.0,0.,24.0
1979-07-18 15:14:31.810 ,3,1,0.,24.0,0.,24.0,0.,24.0,0.,24.0
1979-07-18 15:14:55.810 ,3,0,0.,24.0,0.,24.0,0.,24.0,0.,24.0
1979-07-18 15:15:19.810 ,4,1,0.,24.0,0.,24.0,0.,24.0,0.,24.0
1979-07-18 15:15:43.810 ,4,0,0.,24.0,0.,24.0,0.,24.0,0.,24.0
1979-07-18 15:16:07.810 ,5,1,0.,24.0,0.,24.0,0.,24.0,0.,24.0
1979-07-18 15:16:31.810 ,5,0,0.,24.0,0.,24.0,0.,24.0,0.,24.0
1979-07-18 15:16:55.810 ,6,1,0.,24.0,0.,24.0,0.,24.0,0.,24.0
1979-07-18 15:17:19.810 ,6,0,0.,24.0,0.,24.0,0.,24.0,0.,24.0
1979-07-18 15:17:43.810 ,7,1,0.,24.0,0.,24.0,0.,24.0,0.,24.0
1979-07-18 15:18:07.810 ,7,0,0.,24.0,0.,24.0,0.,24.0,0.,24.0
1979-07-18 15:18:31.810 ,7,1,0.,24.0,0.,24.0,0.,24.0,0.,24.0
1979-07-18 15:18:55.810 ,7,0,0.,24.0,0.,24.0,0.,24.0,0.,24.0
1979-07-18 15:19:19.810 ,6,1,0.,24.0,0.,24.0,0.,24.0,0.,24.0
1979-07-18 15:19:43.810 ,6,0,0.,24.0,0.,24.0,0.,24.0,0.,24.0
1979-07-18 15:20:07.810 ,5,1,0.,24.0,0.,24.0,0.,24.0,0.,24.0
1979-07-18 15:20:31.810 ,5,0,0.,24.0,0.,24.0,0.,24.0,0.,24.0
1979-07-18 15:20:55.810 ,4,1,0.,24.0,0.,24.0,0.,24.0,0.,24.0
1979-07-18 15:21:19.810 ,4,0,0.,24.0,0.,24.0,0.,24.0,0.,24.0
1979-07-18 15:21:43.810 ,3,1,0.,24.0,0.,24.0,0.,24.0,0.,24.0
1979-07-18 15:22:07.810 ,3,0,0.,24.0,0.,24.0,0.,24.0,0.,24.0
1979-07-18 15:22:31.810 ,2,1,0.,24.0,0.,24.0,0.,24.0,0.,24.0
1979-07-18 15:22:55.810 ,2,0,0.,24.0,0.,24.0,0.,24.0,0.,24.0
1979-07-18 15:23:19.810 ,1,1,0.,24.0,0.,24.0,0.,24.0,0.,24.0
1979-07-18 15:23:43.810 ,1,0,0.,24.0,0.,24.0,0.,24.0,0.,24.0
1979-07-18 15:24:07.810 ,0,1,0.,24.0,0.,24.0,0.,24.0,0.,24.0
1979-07-18 15:24:31.810 ,0,0,0.,24.0,0.,24.0,0.,24.0,0.,24.0
1979-07-18 15:24:55.810 ,0,1,0.,24.0,0.,24.0,0.,24.0,0.,24.0
1979-07-18 15:25:19.810 ,0,0,0.,24.0,0.,24.0,0.,24.0,0.,24.0
1979-07-18 15:25:43.810 ,1,1,0.,24.0,0.,24.0,0.,24.0,0.,24.0
1979-07-18 15:26:07.810 ,1,0,0.,24.0,0.,24.0,0.,24.0,0.,24.0
1979-07-18 15:26:31.810 ,2,1,0.,24.0,0.,24.0,0.,24.0,0.,24.0
1979-07-18 15:26:55.810 ,2,0,0.,24.0,0.,24.0,0.,24.0,0.,24.0
1979-07-18 15:27:19.810 ,3,1,0.,24.0,0.,24.0,0.,24.0,0.,24.0
1979-07-18 15:27:43.810 ,3,0,0.,24.0,0.,24.0,0.,24.0,0.,24.0
1979-07-18 15:28:07.810 ,4,1,0.,24.0,0.,24.0,0.,24.0,0.,24.0
1979-07-18 15:28:31.810 ,4,0,0.,24.0,0.,24.0,0.,24.0,0.,24.0
1979-07-18 15:28:55.810 ,5,1,0.,24.0,0.,24.0,0.,24.0,0.,24.0
1979-07-18 15:29:19.810 ,5,0,0.,24.0,0.,24.0,0.,24.0,0.,24.0
1979-07-18 15:29:43.810 ,6,1,0.,24.0,0.,24.0,0.,24.0,0.,24.0
1979-07-18 15:30:07.810 ,6,0,0.,24.0,0.,24.0,0.,24.0,0.,24.0
1979-07-18 15:30:31.810 ,7,0,0.,24.0,0.,24.0,0.,24.0,0.,24.0
1979-07-18 15:30:55.810 ,7,0,0.,24.0,0.,24.0,0.,24.0,0.,24.0
1979-07-18 15:31:19.810 ,5,1,0.,24.0,0.,24.0,0.,24.0,0.,24.0
1979-07-18 15:31:43.810 ,1,1,0.,24.0,0.,24.0,0.,24.0,0.,24.0
1979-07-18 15:32:07.810 ,2,1,0.,24.0,0.,24.0,0.,24.0,0.,24.0
1979-07-18 15:32:31.810 ,6,1,0.,24.0,0.,24.0,0.,24.0,0.,24.0
1979-07-18 15:32:55.810 ,5,1,0.,24.0,0.,24.0,0.,24.0,0.,24.0
1979-07-18 15:33:19.810 ,1,1,0.,24.0,0.,24.0,0.,24.0,0.,24.0
1979-07-18 15:33:43.810 ,2,1,0.,24.0,0.,24.0,0.,24.0,0.,24.0
1979-07-18 15:34:07.810 ,6,1,0.,24.0,0.,24.0,0.,24.0,0.,24.0
1979-07-18 15:34:31.810 ,5,1,0.,24.0,0.,24.0,0.,24.0,0.,24.0
1979-07-18 15:34:55.810 ,1,1,0.,24.0,0.,24.0,0.,24.0,0.,24.0
1979-07-18 15:35:19.810 ,2,1,0.,24.0,0.,24.0,0.,24.0,0.,24.0
1979-07-18 15:35:43.810 ,6,1,0.,24.0,0.,24.0,0.,24.0,0.,24.0
1979-07-18 15:36:55.810 ,0,0,0.,24.0,0.,24.0,0.,24.0,0.,24.0
1979-07-18 15:37:19.810 ,6,1,0.,24.0,0.,24.0,0.,24.0,0.,24.0
1979-07-18 15:37:43.810 ,5,1,0.,24.0,0.,24.0,0.,24.0,0.,24.0
1979-07-18 15:38:07.810 ,1,1,0.,24.0,0.,24.0,0.,24.0,0.,24.0
1979-07-18 15:38:31.810 ,2,1,0.,24.0,0.,24.0,0.,24.0,0.,24.0
1979-07-18 15:38:55.810 ,6,1,0.,24.0,0.,24.0,0.,24.0,0.,24.0
1979-07-18 15:39:19.810 ,5,1,0.,24.0,0.,24.0,0.,24.0,0.,24.0
1979-07-18 15:39:43.810 ,1,1,0.,24.0,0.,24.0,0.,24.0,0.,24.0
1979-07-18 15:40:07.810 ,2,1,0.,24.0,0.,24.0,0.,24.0,0.,24.0
1979-07-18 15:40:31.810 ,6,1,0.,24.0,0.,24.0,0.,24.0,0.,24.0
1979-07-18 15:40:55.810 ,5,1,0.,24.0,0.,24.0,0.,24.0,0.,24.0
1979-07-18 15:41:19.810 ,1,1,0.,24.0,0.,24.0,0.,24.0,0.,24.0
1979-07-18 15:41:43.810 ,0,0,0.,24.0,0.,24.0,0.,24.0,0.,24.0
1979-07-18 15:42:07.810 ,0,0,0.,24.0,0.,24.0,0.,24.0,0.,24.0
1979-07-18 15:42:31.810 ,5,1,0.,24.0,0.,24.0,0.,24.0,0.,24.0
1979-07-18 15:42:55.810 ,5,0,0.,24.0,0.,24.0,0.,24.0,0.,24.0
1979-07-18 15:43:19.810 ,4,1,0.,24.0,0.,24.0,0.,24.0,0.,24.0
1979-07-18 15:43:43.810 ,4,0,0.,24.0,0.,24.0,0.,24.0,0.,24.0
1979-07-18 15:44:07.810 ,3,1,0.,24.0,0.,24.0,0.,24.0,0.,24.0
1979-07-18 15:44:31.810 ,3,0,0.,24.0,0.,24.0,0.,24.0,0.,24.0
1979-07-18 15:44:55.810 ,2,1,0.,24.0,0.,24.0,0.,24.0,0.,24.0
1979-07-18 15:45:19.810 ,2,0,0.,24.0,0.,24.0,0.,24.0,0.,24.0
1979-07-18 15:45:43.810 ,1,1,0.,24.0,0.,24.0,0.,24.0,0.,24.0
1979-07-18 15:46:07.810 ,1,0,0.,24.0,0.,24.0,0.,24.0,0.,24.0
1979-07-18 15:46:31.810 ,0,1,0.,24.0,0.,24.0,0.,24.0,0.,24.0
1979-07-18 15:46:55.810 ,0,0,0.,24.0,0.,24.0,0.,24.0,0.,24.0
1979-07-18 15:47:34.210 ,0,0,,0,,0,,0,,0
1979-07-18 15:47:43.810 ,0,0,0.,24.0,0.,24.0,0.,24.0,0.,24.0
1979-07-18 15:48:07.810 ,1,1,0.,24.0,0.,24.0,0.,24.0,0.,24.0
1979-07-18 15:48:31.810 ,1,0,0.,24.0,0.,24.0,0.,24.0,0.,24.0
1979-07-18 15:49:43.810 ,0,0,0.,24.0,0.,24.0,0.,24.0,0.,24.0
1979-07-18 15:50:07.810 ,0,0,0.,24.0,0.,24.0,0.,24.0,0.,24.0
1979-07-18 15:50:31.810 ,4,1,0.,24.0,0.,24.0,0.,24.0,0.,24.0
1979-07-18 15:50:55.810 ,4,0,0.,24.0,0.,24.0,0.,24.0,0.,24.0
1979-07-18 15:51:19.810 ,5,1,0.,24.0,0.,24.0,0.,24.0,0.,24.0
1979-07-18 15:51:43.810 ,5,0,0.,24.0,0.,24.0,0.,24.0,0.,24.0
1979-07-18 15:52:07.810 ,6,1,0.,24.0,0.,24.0,0.,24.0,0.,24.0
1979-07-18 15:52:31.810 ,6,0,0.,24.0,0.,24.0,0.,24.0,0.,24.0
1979-07-18 15:52:55.810 ,7,1,0.,24.0,0.,24.0,0.,24.0,0.,24.0
1979-07-18 15:53:19.810 ,7,0,0.,24.0,0.,24.0,0.,24.0,0.,24.0
1979-07-18 15:53:43.810 ,7,1,0.,24.0,0.,24.0,0.,24.0,0.,24.0
1979-07-18 15:54:07.810 ,7,0,0.,24.0,0.,24.0,0.,24.0,0.,24.0
1979-07-18 15:54:31.810 ,6,1,0.,24.0,0.,24.0,0.,24.0,0.,24.0
1979-07-18 15:54:55.810 ,6,0,0.,24.0,0.,24.0,0.,24.0,0.,24.0
1979-07-18 15:55:19.810 ,5,1,0.,24.0,0.,24.0,0.,24.0,0.,24.0
1979-07-18 15:55:43.810 ,5,0,0.,24.0,0.,24.0,0.,24.0,0.,24.0
1979-07-18 15:56:07.810 ,4,1,0.,24.0,0.,24.0,0.,24.0,0.,24.0
1979-07-18 15:56:31.810 ,4,0,0.,24.0,0.,24.0,0.,24.0,0.,24.0
1979-07-18 15:56:55.810 ,3,1,0.,24.0,0.,24.0,0.,24.0,0.,24.0
1979-07-18 15:57:19.810 ,3,0,0.,24.0,0.,24.0,0.,24.0,0.,24.0
1979-07-18 15:57:43.810 ,2,1,0.,24.0,0.,24.0,0.,24.0,0.,24.0
1979-07-18 15:58:07.810 ,2,0,0.,24.0,0.,24.0,0.,24.0,0.,24.0
1979-07-18 15:58:31.810 ,1,1,0.,24.0,0.,24.0,0.,24.0,0.,24.0
1979-07-18 15:58:55.810 ,1,0,0.,24.0,0.,24.0,0.,24.0,0.,24.0
1979-07-18 15:59:19.810 ,0,1,0.,24.0,0.,24.0,0.,24.0,0.,24.0
1979-07-18 15:59:43.810 ,0,0,0.,24.0,0.,24.0,0.,24.0,0.,24.0
1979-07-18 16:00:07.810 ,0,1,0.,24.0,0.,24.0,0.,24.0,0.,24.0
1979-07-18 16:00:31.810 ,0,0,0.,24.0,0.,24.0,0.,24.0,0.,24.0
1979-07-18 16:00:55.810 ,1,1,0.,24.0,0.,24.0,0.,24.0,0.,24.0
1979-07-18 16:01:19.810 ,1,0,0.,24.0,0.,24.0,0.,24.0,0.,24.0
1979-07-18 16:01:43.810 ,2,1,0.,24.0,0.,24.0,0.,24.0,0.,24.0
1979-07-18 16:02:07.810 ,2,0,0.,24.0,0.,24.0,0.,24.0,0.,24.0
1979-07-18 16:03:19.810 ,0,0,0.,24.0,0.,24.0,0.,24.0,0.,24.0
1979-07-18 16:03:43.810 ,0,0,0.,24.0,0.,24.0,0.,24.0,0.,24.0
1979-07-18 16:04:07.810 ,5,1,0.,24.0,0.,24.0,0.,24.0,0.,24.0
1979-07-18 16:04:31.810 ,5,0,0.,24.0,0.,24.0,0.,24.0,0.,24.0
1979-07-18 16:04:55.810 ,6,1,0.,24.0,0.,24.0,0.,24.0,0.,24.0
1979-07-18 16:05:19.810 ,6,0,0.,24.0,0.,24.0,0.,24.0,0.,24.0
1979-07-18 16:05:43.810 ,7,1,0.,24.0,0.,24.0,0.,24.0,0.,24.0
1979-07-18 16:06:07.810 ,7,0,0.,24.0,0.,24.0,0.,24.0,0.,24.0
1979-07-18 16:06:31.810 ,7,1,0.,24.0,0.,24.0,0.,24.0,0.,24.0
1979-07-18 16:06:55.810 ,7,0,0.,24.0,0.,24.0,0.,24.0,0.,24.0
1979-07-18 16:07:19.810 ,6,1,0.,24.0,0.,24.0,0.,24.0,0.,24.0
1979-07-18 16:07:43.810 ,6,0,0.,24.0,0.,24.0,0.,24.0,0.,24.0
1979-07-18 16:08:07.810 ,5,1,0.,24.0,0.,24.0,0.,24.0,0.,24.0
1979-07-18 16:08:31.810 ,5,0,0.,24.0,0.,24.0,0.,24.0,0.,24.0
1979-07-18 16:09:43.810 ,0,0,0.,24.0,0.,24.0,0.,24.0,0.,24.0
1979-07-18 16:10:07.810 ,0,0,0.,24.0,0.,24.0,0.,24.0,0.,24.0
1979-07-18 16:10:31.810 ,2,1,0.,24.0,0.,24.0,0.,24.0,0.,24.0
1979-07-18 16:10:55.810 ,2,0,0.,24.0,0.,24.0,0.,24.0,0.,24.0
1979-07-18 16:11:19.810 ,1,1,0.,24.0,0.,24.0,0.,24.0,0.,24.0
1979-07-18 16:11:43.810 ,1,0,0.,24.0,0.,24.0,0.,24.0,0.,24.0
1979-07-18 16:12:07.810 ,0,1,0.,24.0,0.,24.0,0.,24.0,0.,24.0
1979-07-18 16:12:31.810 ,0,0,0.,24.0,0.,24.0,0.,24.0,0.,24.0
1979-07-18 16:13:43.810 ,0,0,0.,24.0,0.,24.0,0.,24.0,0.,24.0
1979-07-18 16:14:07.810 ,0,0,0.,24.0,0.,24.0,0.,24.0,0.,24.0
1979-07-18 16:14:31.810 ,2,1,0.,24.0,0.,24.0,0.,24.0,0.,24.0
1979-07-18 16:14:55.810 ,2,0,0.,24.0,0.,24.0,0.,24.0,0.,24.0
1979-07-18 16:15:19.810 ,3,1,0.,24.0,0.,24.0,0.,24.0,0.,24.0
1979-07-18 16:15:43.810 ,3,0,0.,24.0,0.,24.0,0.,24.0,0.,24.0
1979-07-18 16:16:55.810 ,0,0,0.,24.0,0.,24.0,0.,24.0,0.,24.0
1979-07-18 16:17:19.810 ,0,0,0.,24.0,0.,24.0,0.,24.0,0.,24.0
1979-07-18 16:17:43.810 ,6,1,0.,24.0,0.,24.0,0.,24.0,0.,24.0
1979-07-18 16:18:07.810 ,6,0,0.,24.0,0.,24.0,0.,24.0,0.,24.0
1979-07-18 16:18:31.810 ,7,0,0.,24.0,0.,24.0,0.,24.0,0.,24.0
1979-07-18 16:18:55.810 ,7,0,0.,24.0,0.,24.0,0.,24.0,0.,24.0
1979-07-18 16:19:19.810 ,5,1,0.,24.0,0.,24.0,0.,24.0,0.,24.0
1979-07-18 16:19:43.810 ,1,1,0.,24.0,0.,24.0,0.,24.0,0.,24.0
1979-07-18 16:20:07.810 ,2,1,0.,24.0,0.,24.0,0.,24.0,0.,24.0
1979-07-18 16:20:31.810 ,6,1,0.,24.0,0.,24.0,0.,24.0,0.,24.0
1979-07-18 16:20:55.810 ,5,1,0.,24.0,0.,24.0,0.,24.0,0.,24.0
1979-07-18 16:21:19.810 ,1,1,0.,24.0,0.,24.0,0.,24.0,0.,24.0
1979-07-18 16:21:43.810 ,2,1,0.,24.0,0.,24.0,0.,24.0,0.,24.0
1979-07-18 16:22:07.810 ,6,1,0.,24.0,0.,24.0,0.,24.0,0.,24.0
1979-07-18 16:23:19.810 ,0,0,0.,24.0,0.,24.0,0.,24.0,0.,24.0
1979-07-18 16:23:43.810 ,6,1,0.,24.0,0.,24.0,0.,24.0,0.,24.0
1979-07-18 16:24:07.810 ,5,1,0.,24.0,0.,24.0,0.,24.0,0.,24.0
1979-07-18 16:24:31.810 ,1,1,0.,24.0,0.,24.0,0.,24.0,0.,24.0
1979-07-18 16:24:55.810 ,2,1,0.,24.0,0.,24.0,0.,24.0,0.,24.0
1979-07-18 16:25:19.810 ,6,1,0.,24.0,0.,24.0,0.,24.0,0.,24.0
1979-07-18 16:25:43.810 ,5,1,0.,24.0,0.,24.0,0.,24.0,0.,24.0
1979-07-18 16:26:07.810 ,1,1,0.,24.0,0.,24.0,0.,24.0,0.,24.0
1979-07-18 16:26:31.810 ,2,1,0.,24.0,0.,24.0,0.,24.0,0.,24.0
1979-07-18 16:26:55.810 ,6,1,0.,24.0,0.,24.0,0.,24.0,0.,24.0
1979-07-18 16:27:19.810 ,5,1,0.,24.0,0.,24.0,0.,24.0,0.,24.0
1979-07-18 16:27:43.810 ,1,1,0.,24.0,0.,24.0,0.,24.0,0.,24.0
1979-07-18 16:28:07.810 ,2,1,0.,24.0,0.,24.0,0.,24.0,0.,24.0
1979-07-18 16:28:31.810 ,6,1,0.,24.0,0.,24.0,0.,24.0,0.,24.0
1979-07-18 16:28:55.810 ,5,1,0.,24.0,0.,24.0,0.,24.0,0.,24.0
1979-07-18 16:29:19.810 ,1,1,0.,24.0,0.,24.0,0.,24.0,0.,24.0
1979-07-18 16:29:43.810 ,0,0,0.,24.0,0.,24.0,0.,24.0,0.,24.0
1979-07-18 16:30:07.810 ,0,0,0.,24.0,0.,24.0,0.,24.0,0.,24.0
1979-07-18 16:30:31.810 ,5,1,0.,24.0,0.,24.0,0.,24.0,0.,24.0
1979-07-18 16:30:55.810 ,5,0,0.,24.0,0.,24.0,0.,24.0,0.,24.0
1979-07-18 16:31:19.810 ,4,1,0.,24.0,0.,24.0,0.,24.0,0.,24.0
1979-07-18 16:31:43.810 ,4,0,0.,24.0,0.,24.0,0.,24.0,0.,24.0
1979-07-18 16:32:07.810 ,3,1,0.,24.0,0.,24.0,0.,24.0,0.,24.0
1979-07-18 16:32:31.810 ,3,0,0.,24.0,0.,24.0,0.,24.0,0.,24.0
1979-07-18 16:32:55.810 ,2,1,0.,24.0,0.,24.0,0.,24.0,0.,24.0
1979-07-18 16:33:19.810 ,2,0,0.,24.0,0.,24.0,0.,24.0,0.,24.0
1979-07-18 16:33:43.810 ,1,1,0.,24.0,0.,24.0,0.,24.0,0.,24.0
1979-07-18 16:34:07.810 ,1,0,0.,24.0,0.,24.0,0.,24.0,0.,24.0
1979-07-18 16:34:31.810 ,0,1,0.,24.0,0.,24.0,0.,24.0,0.,24.0
1979-07-18 16:34:55.810 ,0,0,0.,24.0,0.,24.0,0.,24.0,0.,24.0
1979-07-18 16:35:19.810 ,0,1,0.,24.0,0.,24.0,0.,24.0,0.,24.0
1979-07-18 16:35:43.810 ,0,0,0.,24.0,0.,24.0,0.,24.0,0.,24.0
1979-07-18 16:36:55.810 ,0,0,0.,24.0,0.,24.0,0.,24.0,0.,24.0
1979-07-18 16:37:19.810 ,0,0,0.,24.0,0.,24.0,0.,24.0,0.,24.0
1979-07-18 16:38:31.810 ,0,0,0.,24.0,0.,24.0,0.,24.0,0.,24.0
1979-07-18 16:38:55.810 ,0,0,0.,24.0,0.,24.0,0.,24.0,0.,24.0
1979-07-18 16:39:19.810 ,5,1,0.,24.0,0.,24.0,0.,24.0,0.,24.0
1979-07-18 16:39:43.810 ,5,0,0.,24.0,0.,24.0,0.,24.0,0.,24.0
1979-07-18 16:40:07.810 ,6,1,0.,24.0,0.,24.0,0.,24.0,0.,24.0
1979-07-18 16:40:31.810 ,6,0,0.,24.0,0.,24.0,0.,24.0,0.,24.0
1979-07-18 16:40:55.810 ,7,1,0.,24.0,0.,24.0,0.,24.0,0.,24.0
1979-07-18 16:41:19.810 ,7,0,0.,24.0,0.,24.0,0.,24.0,0.,24.0
1979-07-18 16:41:43.810 ,7,1,0.,24.0,0.,24.0,0.,24.0,0.,24.0
1979-07-18 16:42:07.810 ,7,0,0.,24.0,0.,24.0,0.,24.0,0.,24.0
1979-07-18 16:42:31.810 ,6,1,0.,24.0,0.,24.0,0.,24.0,0.,24.0
1979-07-18 16:42:55.810 ,6,0,0.,24.0,0.,24.0,0.,24.0,0.,24.0
1979-07-18 16:44:07.810 ,0,0,0.,24.0,0.,24.0,0.,24.0,0.,24.0
1979-07-18 16:44:31.810 ,0,0,0.,24.0,0.,24.0,0.,24.0,0.,24.0
1979-07-18 16:44:55.810 ,3,1,0.,24.0,0.,24.0,0.,24.0,0.,24.0
1979-07-18 16:45:19.810 ,3,0,0.,24.0,0.,24.0,0.,24.0,0.,24.0
1979-07-18 16:45:43.810 ,2,1,0.,24.0,0.,24.0,0.,24.0,0.,24.0
1979-07-18 16:46:07.810 ,2,0,0.,24.0,0.,24.0,0.,24.0,0.,24.0
1979-07-18 16:46:31.810 ,1,1,0.,24.0,0.,24.0,0.,24.0,0.,24.0
1979-07-18 16:46:55.810 ,1,0,0.,24.0,0.,24.0,0.,24.0,0.,24.0
1979-07-18 16:47:19.810 ,0,1,0.,24.0,0.,24.0,0.,24.0,0.,24.0
1979-07-18 16:47:43.810 ,0,0,0.,24.0,0.,24.0,0.,24.0,0.,24.0
1979-07-18 16:48:07.810 ,0,1,0.,24.0,0.,24.0,0.,24.0,0.,24.0
1979-07-18 16:48:31.810 ,0,0,0.,24.0,0.,24.0,0.,24.0,0.,24.0
1979-07-18 16:48:55.810 ,1,1,0.,24.0,0.,24.0,0.,24.0,0.,24.0
1979-07-18 16:49:19.810 ,1,0,0.,24.0,0.,24.0,0.,24.0,0.,24.0
1979-07-18 16:49:43.810 ,2,1,0.,24.0,0.,24.0,0.,24.0,0.,24.0
1979-07-18 16:50:07.810 ,2,0,0.,24.0,0.,24.0,0.,24.0,0.,24.0
1979-07-18 16:50:31.810 ,3,1,0.,24.0,0.,24.0,0.,24.0,0.,24.0
1979-07-18 16:50:55.810 ,3,0,0.,24.0,0.,24.0,0.,24.0,0.,24.0
1979-07-18 16:52:07.810 ,0,0,0.,24.0,0.,24.0,0.,24.0,0.,24.0
1979-07-18 16:52:31.810 ,0,0,0.,24.0,0.,24.0,0.,24.0,0.,24.0
1979-07-18 16:52:55.810 ,6,1,0.,24.0,0.,24.0,0.,24.0,0.,24.0
1979-07-18 16:53:19.810 ,6,0,0.,24.0,0.,24.0,0.,24.0,0.,24.0
1979-07-18 16:53:43.810 ,7,1,0.,24.0,0.,24.0,0.,24.0,0.,24.0
1979-07-18 16:54:07.810 ,7,0,0.,24.0,0.,24.0,0.,24.0,0.,24.0
1979-07-18 16:54:31.810 ,7,1,0.,24.0,0.,24.0,0.,24.0,0.,24.0
1979-07-18 16:54:55.810 ,7,0,0.,24.0,0.,24.0,0.,24.0,0.,24.0
1979-07-18 16:55:19.810 ,6,1,0.,24.0,0.,24.0,0.,24.0,0.,24.0
1979-07-18 16:55:43.810 ,6,0,0.,24.0,0.,24.0,0.,24.0,0.,24.0
1979-07-18 16:56:07.810 ,5,1,0.,24.0,0.,24.0,0.,24.0,0.,24.0
1979-07-18 16:56:31.810 ,5,0,0.,24.0,0.,24.0,0.,24.0,0.,24.0
1979-07-18 16:56:55.810 ,4,1,0.,24.0,0.,24.0,0.,24.0,0.,24.0
1979-07-18 16:57:19.810 ,4,0,0.,24.0,0.,24.0,0.,24.0,0.,24.0
1979-07-18 16:57:43.810 ,3,1,0.,24.0,0.,24.0,0.,24.0,0.,24.0
1979-07-18 16:58:07.810 ,3,0,0.,24.0,0.,24.0,0.,24.0,0.,24.0
1979-07-18 16:58:31.810 ,2,1,0.,24.0,0.,24.0,0.,24.0,0.,24.0
1979-07-18 16:58:55.810 ,2,0,0.,24.0,0.,24.0,0.,24.0,0.,24.0
1979-07-18 16:59:19.810 ,1,1,0.,24.0,0.,24.0,0.,24.0,0.,24.0
1979-07-18 16:59:43.810 ,1,0,0.,24.0,0.,24.0,0.,24.0,0.,24.0
1979-07-18 17:00:07.810 ,0,1,0.,24.0,0.,24.0,0.,24.0,0.,24.0
1979-07-18 17:00:31.810 ,0,0,0.,24.0,0.,24.0,0.,24.0,0.,24.0
1979-07-18 17:00:55.810 ,0,1,0.,24.0,0.,24.0,0.,24.0,0.,24.0
1979-07-18 17:01:19.810 ,0,0,0.,24.0,0.,24.0,0.,24.0,0.,24.0
1979-07-18 17:01:43.810 ,1,1,0.,24.0,0.,24.0,0.,24.0,0.,24.0
1979-07-18 17:02:07.810 ,1,0,0.,24.0,0.,24.0,0.,24.0,0.,24.0
1979-07-18 17:02:31.810 ,2,1,0.,24.0,0.,24.0,0.,24.0,0.,24.0
1979-07-18 17:02:55.810 ,2,0,0.,24.0,0.,24.0,0.,24.0,0.,24.0
1979-07-18 17:03:19.810 ,3,1,0.,24.0,0.,24.0,0.,24.0,0.,24.0
1979-07-18 17:03:43.810 ,3,0,0.,24.0,0.,24.0,0.,24.0,0.,24.0
1979-07-18 17:04:07.810 ,4,1,0.,24.0,0.,24.0,0.,24.0,0.,24.0
1979-07-18 17:04:31.810 ,4,0,0.,24.0,0.,24.0,0.,24.0,0.,24.0
1979-07-18 17:04:55.810 ,5,1,0.,24.0,0.,24.0,0.,24.0,0.,24.0
1979-07-18 17:05:19.810 ,5,0,0.,24.0,0.,24.0,0.,24.0,0.,24.0
1979-07-18 17:05:43.810 ,6,1,0.,24.0,0.,24.0,0.,24.0,0.,24.0
1979-07-18 17:06:07.810 ,6,0,0.,24.0,0.,24.0,0.,24.0,0.,24.0
1979-07-18 17:06:31.810 ,7,0,0.,24.0,0.,24.0,0.,24.0,0.,24.0
1979-07-18 17:06:55.810 ,7,0,0.,24.0,0.,24.0,0.,24.0,0.,24.0
1979-07-18 17:07:19.810 ,5,1,0.,24.0,0.,24.0,0.,24.0,0.,24.0
1979-07-18 17:07:43.810 ,1,1,0.,24.0,0.,24.0,0.,24.0,0.,24.0
1979-07-18 17:08:55.810 ,0,0,0.,24.0,0.,24.0,0.,24.0,0.,24.0
1979-07-18 17:09:19.810 ,1,1,0.,24.0,0.,24.0,0.,24.0,0.,24.0
1979-07-18 17:09:43.810 ,2,1,0.,24.0,0.,24.0,0.,24.0,0.,24.0
1979-07-18 17:10:07.810 ,6,1,0.,24.0,0.,24.0,0.,24.0,0.,24.0
1979-07-18 17:10:31.810 ,5,1,0.,24.0,0.,24.0,0.,24.0,0.,24.0
1979-07-18 17:10:55.810 ,1,1,0.,24.0,0.,24.0,0.,24.0,0.,24.0
1979-07-18 17:12:07.810 ,0,0,0.,24.0,0.,24.0,0.,24.0,0.,24.0
1979-07-18 17:12:31.810 ,1,1,0.,24.0,0.,24.0,0.,24.0,0.,24.0
1979-07-18 17:12:55.810 ,2,1,0.,24.0,0.,24.0,0.,24.0,0.,24.0
1979-07-18 17:13:19.810 ,6,1,0.,24.0,0.,24.0,0.,24.0,0.,24.0
1979-07-18 17:13:43.810 ,5,1,0.,24.0,0.,24.0,0.,24.0,0.,24.0
1979-07-18 17:14:07.810 ,1,1,0.,24.0,0.,24.0,0.,24.0,0.,24.0
1979-07-18 17:14:31.810 ,2,1,0.,24.0,0.,24.0,0.,24.0,0.,24.0
1979-07-18 17:14:55.810 ,6,1,0.,24.0,0.,24.0,0.,24.0,0.,24.0
1979-07-18 17:15:19.810 ,5,1,0.,24.0,0.,24.0,0.,24.0,0.,24.0
1979-07-18 17:15:43.810 ,1,1,0.,24.0,0.,24.0,0.,24.0,0.,24.0
1979-07-18 17:16:07.810 ,2,1,0.,24.0,0.,24.0,0.,24.0,0.,24.0
1979-07-18 17:16:31.810 ,6,1,0.,24.0,0.,24.0,0.,24.0,0.,24.0
1979-07-18 17:16:55.810 ,5,1,0.,24.0,0.,24.0,0.,24.0,0.,24.0
1979-07-18 17:17:19.810 ,1,1,0.,24.0,0.,24.0,0.,24.0,0.,24.0
1979-07-18 17:17:43.810 ,0,0,0.,24.0,0.,24.0,0.,24.0,0.,24.0
1979-07-18 17:18:07.810 ,0,0,0.,24.0,0.,24.0,0.,24.0,0.,24.0
1979-07-18 17:18:31.810 ,5,1,0.,24.0,0.,24.0,0.,24.0,0.,24.0
1979-07-18 17:18:55.810 ,5,0,0.,24.0,0.,24.0,0.,24.0,0.,24.0
1979-07-18 17:19:19.810 ,4,1,0.,24.0,0.,24.0,0.,24.0,0.,24.0
1979-07-18 17:19:43.810 ,4,0,0.,24.0,0.,24.0,0.,24.0,0.,24.0
1979-07-18 17:20:07.810 ,3,1,0.,24.0,0.,24.0,0.,24.0,0.,24.0
1979-07-18 17:20:31.810 ,3,0,0.,24.0,0.,24.0,0.,24.0,0.,24.0
1979-07-18 17:20:55.810 ,2,1,0.,24.0,0.,24.0,0.,24.0,0.,24.0
1979-07-18 17:21:19.810 ,2,0,0.,24.0,0.,24.0,0.,24.0,0.,24.0
1979-07-18 17:21:43.810 ,1,1,0.,24.0,0.,24.0,0.,24.0,0.,24.0
1979-07-18 17:22:07.810 ,1,0,0.,24.0,0.,24.0,0.,24.0,0.,24.0
1979-07-18 17:22:31.810 ,0,1,0.,24.0,0.,24.0,0.,24.0,0.,24.0
1979-07-18 17:22:55.810 ,0,0,0.,24.0,0.,24.0,0.,24.0,0.,24.0
1979-07-18 17:23:19.810 ,0,1,0.,24.0,0.,24.0,0.,24.0,0.,24.0
1979-07-18 17:23:43.810 ,0,0,0.,24.0,0.,24.0,0.,24.0,0.,24.0
1979-07-18 17:24:07.810 ,1,1,0.,24.0,0.,24.0,0.,24.0,0.,24.0
1979-07-18 17:24:31.810 ,1,0,0.,24.0,0.,24.0,0.,24.0,0.,24.0
1979-07-18 17:24:55.810 ,2,1,0.,24.0,0.,24.0,0.,24.0,0.,24.0
1979-07-18 17:25:19.810 ,2,0,0.,24.0,0.,24.0,0.,24.0,0.,24.0
1979-07-18 17:25:43.810 ,3,1,0.,24.0,0.,24.0,0.,24.0,0.,24.0
1979-07-18 17:26:07.810 ,3,0,0.,24.0,0.,24.0,0.,24.0,0.,24.0
1979-07-18 17:26:31.810 ,4,1,0.,24.0,0.,24.0,0.,24.0,0.,24.0
1979-07-18 17:26:55.810 ,4,0,0.,24.0,0.,24.0,0.,24.0,0.,24.0
1979-07-18 17:27:19.810 ,5,1,0.,24.0,0.,24.0,0.,24.0,0.,24.0
1979-07-18 17:27:43.810 ,5,0,0.,24.0,0.,24.0,0.,24.0,0.,24.0
1979-07-18 17:28:07.810 ,6,1,0.,24.0,0.,24.0,0.,24.0,0.,24.0
1979-07-18 17:28:31.810 ,6,0,0.,24.0,0.,24.0,0.,24.0,0.,24.0
1979-07-18 17:28:55.810 ,7,1,0.,24.0,0.,24.0,0.,24.0,0.,24.0
1979-07-18 17:29:19.810 ,7,0,0.,24.0,0.,24.0,0.,24.0,0.,24.0
1979-07-18 17:29:43.810 ,7,1,0.,24.0,0.,24.0,0.,24.0,0.,24.0
1979-07-18 17:30:07.810 ,7,0,0.,24.0,0.,24.0,0.,24.0,0.,24.0
1979-07-18 17:30:31.810 ,6,1,0.,24.0,0.,24.0,0.,24.0,0.,24.0
1979-07-18 17:30:55.810 ,6,0,0.,24.0,0.,24.0,0.,24.0,0.,24.0
1979-07-18 17:32:07.810 ,0,0,0.,24.0,0.,24.0,0.,24.0,0.,24.0
1979-07-18 17:32:31.810 ,0,0,0.,24.0,0.,24.0,0.,24.0,0.,24.0
1979-07-18 17:32:55.810 ,3,1,0.,24.0,0.,24.0,0.,24.0,0.,24.0
1979-07-18 17:33:19.810 ,3,0,0.,24.0,0.,24.0,0.,24.0,0.,24.0
1979-07-18 17:33:43.810 ,2,1,0.,24.0,0.,24.0,0.,24.0,0.,24.0
1979-07-18 17:34:07.810 ,2,0,0.,24.0,0.,24.0,0.,24.0,0.,24.0
1979-07-18 17:34:31.810 ,1,1,0.,24.0,0.,24.0,0.,24.0,0.,24.0
1979-07-18 17:34:55.810 ,1,0,0.,24.0,0.,24.0,0.,24.0,0.,24.0
1979-07-18 17:35:19.810 ,0,1,0.,24.0,0.,24.0,0.,24.0,0.,24.0
1979-07-18 17:35:43.810 ,0,0,0.,24.0,0.,24.0,0.,24.0,0.,24.0
1979-07-18 17:36:07.810 ,0,1,0.,24.0,0.,24.0,0.,24.0,0.,24.0
1979-07-18 17:36:31.810 ,0,0,0.,24.0,0.,24.0,0.,24.0,0.,24.0
1979-07-18 17:36:55.810 ,1,1,0.,24.0,0.,24.0,0.,24.0,0.,24.0
1979-07-18 17:37:19.810 ,1,0,0.,24.0,0.,24.0,0.,24.0,0.,24.0
1979-07-18 17:37:43.810 ,2,1,0.,24.0,0.,24.0,0.,24.0,0.,24.0
1979-07-18 17:38:07.810 ,2,0,0.,24.0,0.,24.0,0.,24.0,0.,24.0
1979-07-18 17:39:19.810 ,0,0,0.,24.0,0.,24.0,0.,24.0,0.,24.0
1979-07-18 17:39:43.810 ,0,0,0.,24.0,0.,24.0,0.,24.0,0.,24.0
1979-07-18 17:40:07.810 ,5,1,0.,24.0,0.,24.0,0.,24.0,0.,24.0
1979-07-18 17:40:31.810 ,5,0,0.,24.0,0.,24.0,0.,24.0,0.,24.0
1979-07-18 17:40:55.810 ,6,1,0.,24.0,0.,24.0,0.,24.0,0.,24.0
1979-07-18 17:41:19.810 ,6,0,0.,24.0,0.,24.0,0.,24.0,0.,24.0
1979-07-18 17:41:43.810 ,7,1,0.,24.0,0.,24.0,0.,24.0,0.,24.0
1979-07-18 17:42:07.810 ,7,0,0.,24.0,0.,24.0,0.,24.0,0.,24.0
1979-07-18 17:42:31.810 ,7,1,0.,24.0,0.,24.0,0.,24.0,0.,24.0
1979-07-18 17:42:55.810 ,7,0,0.,24.0,0.,24.0,0.,24.0,0.,24.0
1979-07-18 17:43:19.810 ,6,1,0.,24.0,0.,24.0,0.,24.0,0.,24.0
1979-07-18 17:43:43.810 ,6,0,0.,24.0,0.,24.0,0.,24.0,0.,24.0
1979-07-18 17:44:07.810 ,5,1,0.,24.0,0.,24.0,0.,24.0,0.,24.0
1979-07-18 17:44:31.810 ,5,0,0.,24.0,0.,24.0,0.,24.0,0.,24.0
1979-07-18 17:44:55.800 ,4,1,0.,24.0,0.,24.0,0.,24.0,0.,24.0
1979-07-18 17:45:19.800 ,4,0,0.,24.0,0.,24.0,0.,24.0,0.,24.0
1979-07-18 17:45:43.800 ,3,1,0.,24.0,0.,24.0,0.,24.0,0.,24.0
1979-07-18 17:46:07.800 ,3,0,0.,24.0,0.,24.0,0.,24.0,0.,24.0
1979-07-18 17:46:31.800 ,2,1,0.,24.0,0.,24.0,0.,24.0,0.,24.0
1979-07-18 17:46:55.800 ,2,0,0.,24.0,0.,24.0,0.,24.0,0.,24.0
1979-07-18 17:47:19.800 ,1,1,0.,24.0,0.,24.0,0.,24.0,0.,24.0